Tracking 29892 objects as of 21-Nov-2024
HD Live streaming from Space Station
objects crossing your sky now

STARLINK-3618

Track STARLINK-3618 now!
10-day predictions
STARLINK-3618 is classified as:


NORAD ID: 51998
Int'l Code: 2022-025AU
Perigee: 545.9 km
Apogee: 547.9 km
Inclination: 53.2 °
Period: 95.4 minutes
Semi major axis: 6917 km
RCS: Unknown
Launch date: March 9, 2022
Source: United States (US)
Launch site: AIR FORCE EASTERN TEST RANGE (AFETR)
Your satellite tracking list
Your tracking list is empty




NASA's NSSDC Master Catalog

Two Line Element Set (TLE):
1 51998U 22025AU  24325.48544958 -.00001128  00000-0 -52766-4 0  9990
2 51998  53.2170 347.9022 0001458 105.0570 255.0583 15.08843600150846
Source of the keplerian elements: AFSPC